Dewpoint
54 55 55 55 55 55 55 55 55 55 55 55 55 56 56 57 55 45 33 37 48 50 52 44 43 45 43 41 42 40 34 30 29 30 31 32 32 35 34 35 48 53 55 57 59
55 55 55 55 55 55 55 55 54 54 54 55 55 55 56 57 49 38 39 45 50 51 41 42 41 44 39 39 39 38 34 33 34 33 32 33 34 33 33 34 38 52 58 59 59
55 55 54 54 54 54 53 53 53 54 54 55 55 55 57 55 35 27 38 47 49 51 42 45 44 41 37 38 37 36 35 35 35 35 35 34 34 35 34 33 38 45 54 57 58
54 54 54 54 54 54 54 53 54 54 54 55 55 55 56 48 14 28 40 45 48 46 39 38 40 38 37 34 38 35 36 35 35 36 35 33 34 32 34 33 37 49 55 56 57
54 54 54 54 54 54 54 53 53 53 54 55 55 55 45 25 23 30 37 36 37 37 36 36 37 38 34 37 38 38 36 35 35 35 33 34 33 33 33 33 39 51 56 57 57
54 54 54 54 54 54 54 53 54 54 55 54 55 54 38 18 26 32 33 33 34 35 36 37 36 39 39 39 38 36 37 36 36 34 36 34 32 35 30 42 48 53 56 56 56
54 54 54 54 53 53 53 53 54 54 55 55 55 49 37 23 33 35 33 33 34 35 33 36 38 38 38 35 38 38 33 29 26 29 32 34 28 30 34 41 48 50 52 52 55
53 52 52 52 53 53 53 53 54 55 55 55 54 44 25 33 36 33 34 33 35 36 36 36 42 40 39 38 29 27 27 22 22 26 28 28 22 24 39 46 46 48 51 51 52
52 51 51 52 53 53 54 54 53 54 53 52 44 34 18 29 25 32 34 32 34 36 38 40 38 35 29 27 22 24 21 23 22 27 25 26 22 24 39 46 45 49 50 50 51
51 51 52 53 53 53 52 49 50 46 47 47 40 21 20 18 27 32 35 34 32 30 29 32 28 24 25 24 18 21 23 23 22 24 26 24 23 24 35 46 47 47 49 50 50
51 51 52 52 53 52 41 30 23 16 29 20 23 22 23 30 33 29 33 31 31 27 22 28 19 21 24 25 27 25 25 23 23 25 26 24 22 23 28 44 46 46 48 49 49
50 51 51 51 52 45 38 34 39 39 27 33 33 32 31 32 24 26 31 23 25 18 25 21 14 23 26 25 24 23 23 21 24 26 26 22 18 21 41 42 45 45 46 47 50
50 50 51 50 48 42 39 39 43 43 32 27 34 30 26 29 26 24 29 29 25 16 21 21 19 26 24 19 21 20 21 22 24 26 24 18 18 19 27 41 42 41 47 49 50
50 50 50 49 30 41 37 44 43 42 17 18 20 24 25 29 17 31 32 29 22 17 22 17 23 23 22 13 24 16 24 26 26 21 16 19 15 17 21 25 34 41 43 48 51
49 50 50 46 39 33 40 44 43 36 -1 12 17 27 26 22 24 21 33 27 22 22 20 -1 19 23 15 13 25 17 25 27 26 22 18 17 14 15 18 16 20 23 30 40 51
49 49 49 39 42 44 45 44 37 9 -4 7 19 18 11 18 23 24 21 24 27 14 14 18 22 25 22 24 21 23 19 18 20 20 14 18 15 15 17 19 20 24 31 47 50
49 49 47 44 33 45 44 32 6 -1 8 9 11 15 16 15 15 19 17 17 12 1 4 6 5 11 23 13 19 22 13 -1 -5 7 12 18 14 16 19 23 24 24 26 37 48
49 46 45 45 44 44 34 10 -3 -1 6 17 13 11 12 17 12 11 11 10 18 12 7 4 -3 6 15 21 21 21 18 9 -2 5 12 17 11 15 19 25 24 19 19 21 23
45 40 44 45 43 41 21 2 0 1 18 14 6 0 3 9 10 9 6 16 19 15 7 5 -3 11 20 23 23 16 20 22 18 18 12 13 13 17 19 18 17 18 15 15 18
36 36 39 44 42 33 15 6 5 20 21 18 2 8 6 7 7 9 5 18 20 19 18 13 7 11 12 13 16 23 24 6 10 4 6 8 5 14 15 14 16 17 16 15 16
32 16 32 43 37 26 8 7 16 22 23 16 12 11 11 10 12 9 5 13 22 21 21 18 14 6 8 3 6 16 13 11 11 16 4 4 1 15 16 17 20 20 17 15 16
25 16 36 35 18 28 16 21 24 17 26 20 21 17 14 16 12 10 6 11 22 21 13 18 15 10 6 9 14 20 15 9 5 4 9 8 7 16 20 23 24 23 22 18 22
17 19 34 30 10 7 18 21 22 19 20 22 20 22 20 17 8 9 10 19 21 17 15 15 8 5 2 9 10 9 15 14 13 14 10 7 6 22 25 25 25 25 24 24 25
21 15 23 29 25 18 14 11 14 24 22 23 21 19 17 14 18 14 15 16 18 16 24 19 14 5 -1 1 5 9 10 13 11 11 10 10 9 23 26 25 26 26 26 26 26
22 16 21 14 23 24 24 23 18 12 21 22 18 18 16 12 13 12 13 13 13 20 25 21 14 15 13 13 14 14 14 15 13 13 10 11 12 26 27 25 25 27 23 21 21
20 18 29 19 24 28 27 20 19 18 20 16 17 19 18 16 14 12 13 12 14 17 22 24 14 20 18 17 17 13 13 14 16 16 14 15 17 25 26 26 24 26 21 19 20
35 34 22 16 23 19 15 14 16 19 18 20 19 15 12 13 15 18 19 19 20 14 19 18 18 15 17 13 11 11 14 16 24 25 24 18 23 22 21 22 20 23 19 18 19
Wind_Speed
10 10 11 12 13 13 13 14 14 15 15 15 16 15 15 16 13 2 4 3 4 10 7 10 8 13 3 2 1 3 2 7 6 5 6 9 14 7 9 13 5 7 5 5 23
12 13 13 13 13 14 15 16 15 15 15 16 16 16 15 14 2 5 5 6 7 8 8 9 10 10 4 3 1 2 4 6 7 11 15 19 15 19 11 22 15 9 5 15 23
13 14 14 15 15 15 15 15 15 15 16 16 17 16 15 4 2 3 4 6 8 4 2 2 4 3 3 3 1 2 8 10 17 19 17 19 19 12 11 21 17 7 9 17 23
14 14 15 15 16 16 16 16 16 16 15 15 17 17 15 2 4 3 2 5 8 4 1 5 5 5 4 5 2 6 13 18 18 17 10 11 5 11 12 21 18 14 15 20 20
13 14 13 14 15 16 17 18 17 16 15 14 13 14 2 3 4 3 4 8 5 1 2 3 4 3 6 6 7 8 11 11 16 19 18 13 20 18 14 23 16 13 16 21 19
15 17 18 18 17 17 17 17 17 16 13 12 11 9 2 4 2 3 6 8 3 2 1 2 2 2 5 6 4 5 13 27 17 16 10 11 14 7 15 8 10 6 16 15 15
16 17 18 19 20 21 21 20 18 15 12 9 6 2 1 6 2 5 5 4 3 2 3 3 3 1 1 8 4 9 13 15 5 8 4 8 9 12 11 11 12 10 14 17 11
15 17 18 18 19 21 22 23 19 14 9 4 3 1 5 2 4 4 5 4 2 2 3 3 4 1 2 7 9 6 1 8 11 13 5 5 10 5 7 7 14 13 15 15 13
16 18 20 20 22 24 22 22 8 1 3 4 3 2 5 4 4 4 2 6 6 4 2 5 2 1 4 9 7 5 14 11 14 5 7 4 9 7 6 6 9 8 17 13 8
17 19 21 21 23 24 25 4 2 4 2 2 2 1 2 6 7 7 3 3 2 3 2 4 4 2 6 12 13 17 10 8 15 12 10 8 12 15 6 2 7 11 10 10 7
20 21 20 21 23 24 13 3 6 2 5 4 2 3 5 10 3 2 4 3 3 7 7 5 6 14 14 10 9 14 8 12 15 5 12 6 9 14 9 4 2 5 5 7 8
21 22 21 20 19 17 6 7 3 1 11 4 5 6 4 2 5 4 8 4 5 5 9 5 4 9 14 8 8 9 7 11 14 3 4 11 13 9 6 5 5 4 5 9 7
20 22 23 23 7 7 9 5 3 1 3 5 2 2 2 3 4 6 7 1 4 7 8 2 6 12 11 9 19 9 8 14 8 13 1 8 16 17 7 6 5 8 9 8 11
19 22 23 27 3 2 4 5 3 1 5 2 1 1 1 0 2 2 2 2 4 7 8 4 4 11 13 9 10 9 4 9 7 9 9 11 14 16 15 21 18 14 12 6 11
17 20 20 11 3 3 4 6 2 1 6 3 1 0 1 1 5 2 2 3 3 6 3 6 9 13 11 15 7 9 14 3 3 4 4 19 10 12 10 21 21 21 19 13 9
17 18 17 4 2 2 7 4 1 3 5 4 2 5 6 4 3 7 5 5 1 2 2 6 4 2 4 16 4 19 3 3 4 4 12 10 4 13 11 10 16 19 22 17 6
18 17 4 3 5 7 5 2 4 2 5 7 4 6 6 5 5 6 6 8 7 9 13 10 3 5 4 11 9 22 14 8 7 9 2 10 7 3 9 8 7 17 20 18 11
19 7 4 2 6 6 3 3 4 1 2 4 4 7 4 6 2 8 4 5 5 4 2 6 11 10 9 3 5 7 5 5 3 5 7 9 5 4 7 7 9 14 17 19 21
12 3 3 6 7 4 3 1 4 2 2 6 6 4 4 3 4 6 4 2 1 3 5 5 6 5 3 3 3 6 7 1 1 1 1 6 4 4 17 23 26 26 27 26 23
6 4 2 8 5 3 1 5 3 2 2 1 2 2 4 7 7 8 4 1 1 1 1 1 7 2 5 1 4 4 0 6 6 6 4 6 4 5 17 27 25 27 26 25 24
3 5 2 7 1 4 4 5 4 2 1 0 2 3 2 4 4 5 3 2 2 1 3 2 1 7 6 5 4 5 4 7 4 2 2 6 1 5 15 16 21 23 22 22 23
1 2 3 3 3 2 3 3 2 3 0 1 2 2 1 2 3 3 3 2 4 1 4 2 1 6 11 5 2 2 3 4 3 3 0 2 5 10 13 17 24 26 23 20 20
2 3 3 2 5 2 5 4 3 2 1 1 2 2 1 1 3 2 3 1 4 4 3 1 2 10 10 1 1 2 1 3 4 3 6 3 4 13 22 27 24 26 26 24 24
0 3 2 3 1 2 3 4 3 1 2 1 1 1 1 1 2 4 3 2 7 4 0 3 3 9 13 15 1 10 5 5 3 5 6 14 16 17 21 22 21 22 21 20 22
1 4 1 3 3 4 2 3 2 2 2 1 0 1 1 2 4 5 2 7 6 2 4 5 7 7 15 19 13 17 20 15 17 15 12 4 3 9 12 17 17 13 18 25 28
5 4 1 2 1 4 3 4 5 3 2 3 3 3 2 4 6 8 3 4 7 3 1 2 4 2 10 16 8 14 19 15 9 7 16 12 6 9 11 12 16 14 20 25 25
3 2 3 2 3 5 5 7 6 4 1 1 4 2 5 9 5 9 12 13 15 5 2 3 4 2 7 4 12 11 2 1 6 7 3 1 4 14 16 20 22 12 15 19 23
Wind_Direction
352 348 344 340 336 333 332 330 331 332 332 332 333 335 336 337 331 355 349 266 287 318 346 332 4 5 48 66 91 100 231 255 255 270 257 283 293 288 290 274 265 251 265 302 142
350 346 342 338 335 333 332 328 329 329 328 331 330 333 333 336 359 304 262 260 289 327 343 356 346 354 7 24 43 175 233 251 228 249 268 279 279 286 302 295 293 254 266 154 149
348 345 344 341 336 332 328 326 324 324 326 329 330 332 330 347 358 288 260 260 295 340 331 330 341 27 348 347 265 226 248 256 270 260 261 272 281 269 273 284 262 267 232 182 167
346 346 342 338 333 328 324 321 319 319 321 325 328 328 329 75 10 284 253 311 308 318 325 354 359 4 340 325 292 279 251 257 270 262 265 257 260 280 248 262 265 278 225 185 181
341 338 337 333 329 323 320 317 313 312 314 316 320 327 7 346 270 278 341 332 325 30 308 339 358 347 331 305 299 241 280 276 270 265 248 252 266 258 275 270 276 274 177 190 189
346 343 338 332 325 319 314 309 306 304 304 309 312 330 37 335 259 348 334 332 279 248 261 210 255 238 281 268 259 268 287 291 295 292 245 226 250 187 258 303 292 189 188 194 184
346 342 335 329 323 320 317 310 303 296 293 293 292 54 14 253 285 310 311 292 284 229 282 238 194 189 315 290 281 284 305 324 322 332 291 207 276 238 273 309 269 204 98 58 104
344 340 329 323 319 316 314 309 304 291 283 264 197 103 253 248 303 338 337 347 358 316 220 276 153 212 234 302 323 320 335 340 317 358 4 152 268 258 321 308 254 161 111 105 61
344 341 331 329 328 322 318 317 328 62 155 144 131 81 289 319 336 321 316 316 334 28 83 102 79 359 343 343 333 5 318 314 323 349 348 230 286 274 340 304 220 150 135 134 130
346 341 339 336 326 324 322 312 15 105 84 128 108 19 298 320 309 319 317 348 357 5 37 40 32 340 9 11 335 313 315 299 312 317 331 309 273 288 315 313 229 141 136 143 184
345 343 340 337 334 332 346 15 6 348 18 269 256 251 309 309 276 332 359 3 23 54 3 355 13 354 329 306 265 291 277 292 309 284 334 357 319 315 338 355 173 165 131 166 159
343 340 339 338 343 349 18 64 69 248 310 321 268 279 270 8 316 345 4 28 30 357 345 1 332 330 315 312 305 325 312 336 314 280 349 342 29 4 36 26 328 332 148 192 170
340 342 339 336 346 46 64 49 331 168 282 303 237 292 333 29 320 308 7 15 40 356 358 307 296 327 339 338 356 348 349 331 295 314 140 8 37 22 356 349 26 12 16 163 171
342 343 342 335 48 3 64 334 345 197 333 303 233 156 148 130 279 270 31 21 11 338 339 284 317 340 336 2 2 333 7 318 336 15 32 7 56 25 11 38 34 7 351 340 147
344 341 342 13 319 34 324 329 334 61 313 352 335 333 3 35 317 8 356 34 337 322 357 342 343 350 355 335 339 293 331 316 7 34 23 13 67 355 12 25 10 2 359 337 177
338 342 337 8 30 348 323 326 115 10 261 357 330 350 356 5 358 321 13 34 57 349 302 271 294 324 298 312 317 320 24 21 47 34 38 349 29 25 13 351 358 5 14 18 352
337 337 7 348 332 327 333 1 352 203 346 339 344 352 334 335 352 25 14 23 30 8 358 329 353 336 351 346 360 10 20 13 38 22 340 345 56 38 359 24 22 16 14 20 9
333 342 11 55 330 342 11 36 230 260 324 336 325 325 349 2 353 345 24 32 39 51 351 355 338 4 2 31 312 355 32 51 21 2 315 343 38 37 2 44 46 41 16 7 8
329 352 35 344 352 7 38 273 241 217 281 332 335 354 336 12 338 356 34 71 76 46 18 334 295 328 25 345 15 342 32 297 70 173 349 335 329 61 42 28 9 6 3 357 352
342 1 341 328 359 51 77 255 256 232 296 355 302 18 323 331 343 355 357 339 109 110 74 4 295 320 314 28 48 58 31 20 19 12 5 336 320 14 26 5 358 358 351 346 348
14 340 313 338 26 59 237 241 278 257 185 43 285 299 349 320 333 317 325 343 354 44 74 100 200 297 342 23 329 10 40 55 102 72 21 328 77 26 23 6 355 349 340 340 358
80 276 342 346 310 48 245 209 291 275 352 171 147 218 185 323 303 306 309 321 11 19 15 32 191 299 302 298 263 158 117 87 67 308 318 233 279 58 32 31 15 4 356 10 18
258 273 357 61 252 243 292 284 251 271 253 185 173 200 194 244 306 255 296 10 40 20 15 127 327 321 346 4 46 35 117 141 117 130 221 202 240 13 26 28 19 13 13 17 19
202 294 330 68 91 182 261 266 268 358 283 224 219 159 172 248 225 285 292 302 330 285 214 158 215 211 256 275 302 300 260 230 208 223 219 222 269 8 11 11 6 5 3 10 14
165 245 162 260 234 202 224 261 228 251 227 211 331 276 168 267 295 256 271 307 303 295 163 173 242 219 255 274 273 271 271 252 218 209 219 255 193 10 3 352 348 354 3 7 6
200 176 116 267 188 178 223 243 217 205 219 222 183 186 221 227 223 286 302 282 271 331 115 24 285 290 278 272 282 278 280 279 243 240 255 248 221 18 339 338 351 2 7 2 358
188 117 142 216 187 172 224 228 212 165 186 222 164 163 266 271 266 264 255 251 253 248 200 266 234 316 277 323 311 289 17 116 117 57 324 215 29 1 349 342 334 3 9 357 352